GW5270 Weather Reports


Display with metric or nautical units.
time (UTC)temp
F
wind
direction
speed
MPH
gust
MPH
rain 1hr
in
rain 24hr
in
rain mn
in
humidity
%
barometer
mb
20260413203129 72 312 4.0 8.0 0.00 0.00 0.00 60 1022.3
20260413202626 72 281 10.0 14.0 0.00 0.00 0.00 60 1022.7
20260413202123 72 252 4.0 9.0 0.00 0.00 0.00 61 1022.6
20260413201620 72 353 5.0 13.0 0.00 0.00 0.00 61 1022.6
20260413201117 72 296 4.0 10.0 0.00 0.00 0.00 60 1022.5
20260413200615 72 296 5.0 11.0 0.00 0.00 0.00 63 1022.5
20260413200112 72 317 6.0 11.0 0.00 0.00 0.00 61 1022.5
20260413195609 72 290 7.0 14.0 0.00 0.00 0.00 61 1022.6
20260413195106 72 243 11.0 15.0 0.00 0.00 0.00 61 1022.7
20260413194603 73 241 4.0 8.0 0.00 0.00 0.00 62 1022.6
20260413194100 72 327 4.0 7.0 0.00 0.00 0.00 61 1022.6
20260413193558 72 286 7.0 14.0 0.00 0.00 0.00 60 1022.6
20260413193055 72 284 9.0 11.0 0.00 0.00 0.00 59 1022.7
20260413192553 72 305 9.0 10.0 0.00 0.00 0.00 60 1022.7
20260413192051 72 215 6.0 13.0 0.00 0.00 0.00 60 1022.9
20260413191549 71 254 7.0 16.0 0.00 0.00 0.00 60 1022.6
20260413191046 71 254 7.0 16.0 0.00 0.00 0.00 60 1022.6
20260413190545 71 231 6.0 14.0 0.00 0.00 0.00 61 1022.9
20260413190042 71 272 6.0 15.0 0.00 0.00 0.00 60 1022.9
20260413185539 71 225 6.0 17.0 0.00 0.00 0.00 62 1023.0
20260413185035 72 309 11.0 22.0 0.00 0.00 0.00 60 1023.0
20260413184533 72 307 4.0 8.0 0.00 0.00 0.00 63 1023.0
20260413184031 71 252 3.0 11.0 0.00 0.00 0.00 63 1023.2
20260413183528 71 221 9.0 13.0 0.00 0.00 0.00 62 1023.0
20260413183027 71 233 5.0 9.0 0.00 0.00 0.00 61 1023.1
20260413182523 71 237 4.0 11.0 0.00 0.00 0.00 61 1023.4
20260413182020 71 179 7.0 11.0 0.00 0.00 0.00 60 1023.2
20260413181518 70 264 4.0 8.0 0.00 0.00 0.00 62 1023.3
20260413181015 70 270 9.0 14.0 0.00 0.00 0.00 62 1023.5
20260413180512 70 309 4.0 9.0 0.00 0.00 0.00 62 1023.4
20260413180010 69 316 9.0 11.0 0.00 0.00 0.00 62 1023.3
20260413175507 69 242 6.0 10.0 0.00 0.00 0.00 64 1023.7
20260413175003 69 278 6.0 10.0 0.00 0.00 0.00 65 1023.5
20260413174502 69 280 5.0 11.0 0.00 0.00 0.00 63 1023.5
20260413173958 69 299 8.0 17.0 0.00 0.00 0.00 63 1023.6
20260413173456 68 273 4.0 9.0 0.00 0.00 0.00 64 1023.6
20260413172954 68 203 2.0 7.0 0.00 0.00 0.00 66 1023.7
20260413172450 67 209 8.0 11.0 0.00 0.00 0.00 65 1023.9
20260413171948 67 268 5.0 10.0 0.00 0.00 0.00 66 1023.8
20260413171444 67 271 5.0 8.0 0.00 0.00 0.00 65 1024.2
20260413170942 68 297 7.0 9.0 0.00 0.00 0.00 65 1024.1
20260413170439 67 182 5.0 8.0 0.00 0.00 0.00 68 1024.1
20260413165936 67 273 5.0 9.0 0.00 0.00 0.00 67 1024.0
20260413165432 67 229 5.0 11.0 0.00 0.00 0.00 68 1024.0
20260413164930 67 272 6.0 10.0 0.00 0.00 0.00 67 1024.0
20260413164428 67 270 7.0 14.0 0.00 0.00 0.00 67 1024.2
20260413163923 67 253 5.0 16.0 0.00 0.00 0.00 67 1024.1
20260413163420 68 250 9.0 14.0 0.00 0.00 0.00 65 1024.2
20260413162918 68 278 9.0 14.0 0.00 0.00 0.00 65 1024.1
20260413162414 68 289 6.0 11.0 0.00 0.00 0.00 64 1024.3
20260413161911 68 246 6.0 19.0 0.00 0.00 0.00 63 1024.1
20260413161407 68 261 9.0 18.0 0.00 0.00 0.00 61 1024.4
20260413160904 69 279 7.0 10.0 0.00 0.00 0.00 61 1024.3
20260413160402 68 245 6.0 13.0 0.00 0.00 0.00 60 1024.2
20260413155859 69 211 7.0 13.0 0.00 0.00 0.00 60 1024.2
20260413155356 69 251 6.0 10.0 0.00 0.00 0.00 57 1024.2
20260413154853 69 323 9.0 14.0 0.00 0.00 0.00 59 1024.1
20260413154353 69 301 9.0 19.0 0.00 0.00 0.00 58 1024.2
20260413153851 69 238 5.0 15.0 0.00 0.00 0.00 55 1024.0
20260413153349 69 221 10.0 16.0 0.00 0.00 0.00 54 1024.0
20260413152844 70 243 9.0 14.0 0.00 0.00 0.00 52 1024.0
20260413152342 70 263 4.0 8.0 0.00 0.00 0.00 53 1024.0
20260413151839 70 245 4.0 7.0 0.00 0.00 0.00 51 1024.0
20260413151337 70 218 7.0 11.0 0.00 0.00 0.00 51 1023.8
20260413150834 70 257 5.0 15.0 0.00 0.00 0.00 51 1024.0
20260413150331 69 162 4.0 7.0 0.00 0.00 0.00 52 1024.0
20260413145827 69 251 9.0 15.0 0.00 0.00 0.00 52 1023.8
20260413145325 69 308 8.0 11.0 0.00 0.00 0.00 51 1023.7
20260413144822 70 212 4.0 9.0 0.00 0.00 0.00 55 1024.0
20260413144320 69 264 6.0 10.0 0.00 0.00 0.00 53 1023.7
20260413143817 69 334 5.0 6.0 0.00 0.00 0.00 55 1024.2
20260413143311 68 300 6.0 8.0 0.00 0.00 0.00 53 1024.1
20260413142809 68 198 4.0 7.0 0.00 0.00 0.00 55 1024.2
20260413142306 68 281 4.0 7.0 0.00 0.00 0.00 55 1024.2
20260413141802 68 254 7.0 11.0 0.00 0.00 0.00 55 1024.2
20260413141300 68 203 5.0 14.0 0.00 0.00 0.00 56 1024.0
20260413140759 68 267 7.0 14.0 0.00 0.00 0.00 56 1024.1
20260413140257 67 282 8.0 10.0 0.00 0.00 0.00 58 1024.0
20260413135754 66 306 4.0 16.0 0.00 0.00 0.00 63 1024.3
20260413135252 68 233 12.0 21.0 0.00 0.00 0.00 59 1023.8
20260413134750 68 237 3.0 9.0 0.00 0.00 0.00 55 1024.0
20260413134249 68 252 1.0 9.0 0.00 0.00 0.00 54 1023.9
20260413133746 68 222 3.0 9.0 0.00 0.00 0.00 53 1023.8
20260413133242 68 247 6.0 13.0 0.00 0.00 0.00 53 1023.7
20260413132739 68 268 5.0 11.0 0.00 0.00 0.00 53 1023.6
20260413132237 68 231 5.0 17.0 0.00 0.00 0.00 53 1024.0
20260413131734 68 288 5.0 7.0 0.00 0.00 0.00 54 1023.8
20260413131232 68 267 9.0 13.0 0.00 0.00 0.00 53 1023.8
20260413130729 68 285 2.0 10.0 0.00 0.00 0.00 54 1023.7
20260413130226 68 274 5.0 9.0 0.00 0.00 0.00 53 1023.6
20260413125725 68 293 9.0 10.0 0.00 0.00 0.00 53 1023.6
20260413125221 69 204 4.0 9.0 0.00 0.00 0.00 51 1023.8
20260413124719 69 192 9.0 11.0 0.00 0.00 0.00 48 1023.7
20260413124215 69 269 10.0 13.0 0.00 0.00 0.00 48 1023.7
20260413123712 69 268 4.0 10.0 0.00 0.00 0.00 49 1023.7
20260413123210 69 270 3.0 7.0 0.00 0.00 0.00 48 1023.7
20260413122707 69 193 6.0 14.0 0.00 0.00 0.00 46 1023.5
20260413122202 69 250 7.0 11.0 0.00 0.00 0.00 47 1023.6
20260413121700 70 277 4.0 15.0 0.00 0.00 0.00 45 1023.5
20260413121158 70 204 4.0 14.0 0.00 0.00 0.00 44 1023.5
20260413120655 70 298 5.0 7.0 0.00 0.00 0.00 43 1023.6
20260413120151 70 194 9.0 11.0 0.00 0.00 0.00 44 1023.5
20260413115648 70 295 6.0 11.0 0.00 0.00 0.00 44 1023.5
20260413115145 70 255 3.0 11.0 0.00 0.00 0.00 46 1023.5
20260413114642 70 228 5.0 11.0 0.00 0.00 0.00 43 1023.5
20260413114139 70 217 8.0 10.0 0.00 0.00 0.00 44 1023.2
20260413113637 70 307 4.0 6.0 0.00 0.00 0.00 45 1023.3
20260413113134 70 284 4.0 9.0 0.00 0.00 0.00 45 1023.2
20260413112631 69 230 4.0 10.0 0.00 0.00 0.00 44 1023.1
20260413112129 70 295 4.0 7.0 0.00 0.00 0.00 45 1023.1
20260413111627 69 291 4.0 7.0 0.00 0.00 0.00 44 1023.1
20260413111125 70 300 4.0 10.0 0.00 0.00 0.00 44 1023.1
20260413110623 69 268 9.0 10.0 0.00 0.00 0.00 44 1023.0
20260413110120 70 283 8.0 10.0 0.00 0.00 0.00 44 1023.1
20260413105619 69 283 6.0 14.0 0.00 0.00 0.00 44 1022.9
20260413105116 70 175 4.0 6.0 0.00 0.00 0.00 45 1023.0
20260413104613 70 225 3.0 6.0 0.00 0.00 0.00 45 1022.7
20260413104111 70 247 3.0 8.0 0.00 0.00 0.00 45 1022.9
20260413103608 69 234 8.0 13.0 0.00 0.00 0.00 43 1023.0
20260413103107 70 307 2.0 8.0 0.00 0.00 0.00 45 1022.7
20260413102603 70 271 11.0 17.0 0.00 0.00 0.00 43 1022.7
20260413102102 70 241 4.0 10.0 0.00 0.00 0.00 44 1022.9
20260413101558 70 278 5.0 13.0 0.00 0.00 0.00 45 1022.9
20260413101055 70 218 4.0 10.0 0.00 0.00 0.00 44 1022.7
20260413100553 70 267 7.0 13.0 0.00 0.00 0.00 43 1022.5
20260413100050 69 281 6.0 9.0 0.00 0.00 0.00 45 1022.7
20260413095548 70 269 3.0 10.0 0.00 0.00 0.00 45 1022.9
20260413095046 69 212 4.0 6.0 0.00 0.00 0.00 46 1022.6
20260413094543 69 260 4.0 10.0 0.00 0.00 0.00 44 1022.6
20260413094040 69 210 6.0 8.0 0.00 0.00 0.00 45 1022.6
20260413093539 69 222 3.0 7.0 0.00 0.00 0.00 47 1022.6
20260413093036 69 235 2.0 8.0 0.00 0.00 0.00 47 1022.7
20260413092533 69 247 3.0 11.0 0.00 0.00 0.00 45 1022.6
20260413092030 69 221 5.0 6.0 0.00 0.00 0.00 45 1022.6
20260413091527 69 242 3.0 6.0 0.00 0.00 0.00 46 1022.5
20260413091026 69 190 5.0 7.0 0.00 0.00 0.00 45 1022.6
20260413090524 69 215 2.0 7.0 0.00 0.00 0.00 46 1022.5
20260413090020 69 270 2.0 8.0 0.00 0.00 0.00 46 1022.7
20260413085518 69 258 2.0 7.0 0.00 0.00 0.00 47 1022.6
20260413085014 69 257 4.0 7.0 0.00 0.00 0.00 46 1022.5
20260413084510 69 246 2.0 7.0 0.00 0.00 0.00 47 1022.5
20260413084009 69 226 5.0 7.0 0.00 0.00 0.00 46 1022.5
20260413083506 69 247 3.0 6.0 0.00 0.00 0.00 46 1022.6
20260413083001 69 205 5.0 6.0 0.00 0.00 0.00 45 1022.4
20260413082500 69 261 2.0 4.0 0.00 0.00 0.00 47 1022.4
20260413081956 69 231 2.0 6.0 0.00 0.00 0.00 46 1022.6
20260413081454 69 241 2.0 7.0 0.00 0.00 0.00 47 1022.5
20260413080950 69 256 3.0 6.0 0.00 0.00 0.00 48 1022.4
20260413080448 69 227 4.0 7.0 0.00 0.00 0.00 45 1022.3
20260413075945 69 234 2.0 6.0 0.00 0.00 0.00 48 1022.3
20260413075442 69 211 2.0 4.0 0.00 0.00 0.00 47 1022.3
20260413074938 69 272 0.0 2.0 0.00 0.00 0.00 49 1022.2
20260413074437 68 219 6.0 9.0 0.00 0.00 0.00 47 1022.3
20260413073934 69 211 2.0 4.0 0.00 0.00 0.00 48 1022.2
20260413073432 69 270 2.0 6.0 0.00 0.00 0.00 47 1022.1
20260413072930 69 214 4.0 4.0 0.00 0.00 0.00 47 1022.2
20260413072428 70 218 5.0 6.0 0.00 0.00 0.00 47 1022.1
20260413071925 70 228 2.0 7.0 0.00 0.00 0.00 47 1022.2
20260413071424 69 220 2.0 4.0 0.00 0.00 0.00 48 1022.2
20260413070922 69 217 2.0 4.0 0.00 0.00 0.00 48 1022.3
20260413070420 69 212 2.0 6.0 0.00 0.00 0.00 48 1022.1
20260413065917 69 246 4.0 6.0 0.00 0.00 0.00 48 1022.2
20260413065415 69 221 2.0 6.0 0.00 0.00 0.00 49 1022.4
20260413064911 69 237 3.0 7.0 0.00 0.00 0.00 48 1022.1
20260413064408 69 222 3.0 8.0 0.00 0.00 0.00 49 1022.1
20260413063906 69 221 3.0 4.0 0.00 0.00 0.00 48 1022.3
20260413063405 69 221 1.0 4.0 0.00 0.00 0.00 50 1022.2
20260413062902 69 166 4.0 8.0 0.00 0.00 0.00 48 1022.1
20260413062400 70 217 4.0 6.0 0.00 0.00 0.00 49 1022.1
20260413061858 69 212 4.0 7.0 0.00 0.00 0.00 49 1022.0
20260413061355 69 209 3.0 6.0 0.00 0.00 0.00 50 1022.1
20260413060851 69 228 4.0 9.0 0.00 0.00 0.00 50 1022.3
20260413060350 69 197 5.0 8.0 0.00 0.00 0.00 49 1022.3
20260413055848 69 232 4.0 7.0 0.00 0.00 0.00 50 1022.4
20260413055346 69 200 5.0 6.0 0.00 0.00 0.00 50 1022.4
20260413054844 69 234 4.0 8.0 0.00 0.00 0.00 50 1022.5
20260413054342 69 230 5.0 6.0 0.00 0.00 0.00 51 1022.4
20260413053840 69 238 4.0 7.0 0.00 0.00 0.00 51 1022.5
20260413053339 69 231 4.0 7.0 0.00 0.00 0.00 51 1022.5
20260413052837 69 260 3.0 8.0 0.00 0.00 0.00 51 1022.5
20260413052333 69 241 4.0 8.0 0.00 0.00 0.00 51 1022.6
20260413051831 69 207 2.0 8.0 0.00 0.00 0.00 51 1022.5
20260413051327 69 171 9.0 9.0 0.00 0.00 0.00 51 1022.6
20260413050825 69 173 6.0 9.0 0.00 0.00 0.00 51 1022.7
20260413050322 69 230 5.0 8.0 0.00 0.00 0.00 52 1022.7
20260413045820 69 178 8.0 10.0 0.00 0.00 0.00 51 1022.7
20260413045318 69 248 4.0 6.0 0.00 0.00 0.00 52 1023.1
20260413044814 69 265 2.0 6.0 0.00 0.00 0.00 53 1023.0
20260413044313 69 273 2.0 7.0 0.00 0.00 0.00 53 1022.9
20260413043808 69 211 4.0 10.0 0.00 0.00 0.00 52 1022.9
20260413043306 70 258 6.0 10.0 0.00 0.00 0.00 51 1022.9
20260413042803 70 228 9.0 11.0 0.00 0.00 0.00 51 1022.9
20260413042259 70 223 2.0 6.0 0.00 0.00 0.00 52 1022.9
20260413041757 70 223 6.0 9.0 0.00 0.00 0.00 51 1022.9
20260413041256 70 226 6.0 13.0 0.00 0.00 0.00 52 1022.9
20260413040753 70 171 6.0 9.0 0.00 0.00 0.00 53 1023.0
20260413040250 70 201 7.0 10.0 0.00 0.00 0.00 52 1023.0
20260413035749 70 218 4.0 8.0 0.00 0.00 0.00 53 1023.2
20260413035246 70 280 5.0 10.0 0.00 0.00 0.00 52 1023.1
20260413034744 69 216 5.0 9.0 0.00 0.00 0.00 54 1023.2
20260413034243 70 226 5.0 7.0 0.00 0.00 0.00 53 1023.4
20260413033740 70 224 6.0 9.0 0.00 0.00 0.00 52 1023.2
20260413033237 69 268 4.0 8.0 0.00 0.00 0.00 54 1023.2
20260413032735 70 210 4.0 8.0 0.00 0.00 0.00 53 1023.2
20260413032233 70 204 4.0 10.0 0.00 0.00 0.00 53 1023.2
20260413031731 70 222 4.0 7.0 0.00 0.00 0.00 53 1023.3
20260413031230 70 240 5.0 10.0 0.00 0.00 0.00 53 1023.4
20260413030726 70 306 4.0 7.0 0.00 0.00 0.00 53 1023.4
20260413030221 70 241 3.0 7.0 0.00 0.00 0.00 53 1023.6
20260413025719 70 233 6.0 10.0 0.00 0.00 0.00 52 1023.5
20260413025217 71 231 8.0 11.0 0.00 0.00 0.00 52 1023.5
20260413024713 71 119 8.0 10.0 0.00 0.00 0.00 52 1023.6
20260413024211 71 207 6.0 10.0 0.00 0.00 0.00 52 1023.8
20260413023708 71 216 5.0 11.0 0.00 0.00 0.00 51 1023.6
20260413023204 71 219 3.0 10.0 0.00 0.00 0.00 52 1023.6
20260413022700 71 260 5.0 9.0 0.00 0.00 0.00 52 1023.6
20260413022158 71 221 8.0 11.0 0.00 0.00 0.00 51 1023.6
20260413021656 71 266 7.0 9.0 0.00 0.00 0.00 51 1023.7
20260413021153 71 211 8.0 9.0 0.00 0.00 0.00 51 1023.8
20260413020650 72 230 6.0 8.0 0.00 0.00 0.00 50 1023.6
20260413020147 72 202 6.0 9.0 0.00 0.00 0.00 50 1023.8
20260413015644 72 252 2.0 8.0 0.00 0.00 0.00 51 1023.6
20260413015143 72 191 4.0 9.0 0.00 0.00 0.00 50 1023.7
20260413014641 72 289 5.0 9.0 0.00 0.00 0.00 49 1023.6
20260413014138 72 240 7.0 11.0 0.00 0.00 0.00 49 1023.7
20260413013634 73 185 6.0 13.0 0.00 0.00 0.00 48 1023.5
20260413013132 73 236 6.0 10.0 0.00 0.00 0.00 48 1023.6
20260413012628 73 250 7.0 13.0 0.00 0.00 0.00 47 1023.6
20260413012126 73 256 4.0 8.0 0.00 0.00 0.00 49 1023.5
20260413011625 73 203 8.0 14.0 0.00 0.00 0.00 46 1023.6
20260413011122 73 175 5.0 11.0 0.00 0.00 0.00 46 1023.6
20260413010619 74 240 6.0 14.0 0.00 0.00 0.00 46 1023.6
20260413010117 74 230 8.0 10.0 0.00 0.00 0.00 45 1023.6
20260413005614 74 240 7.0 10.0 0.00 0.00 0.00 44 1023.4
20260413005111 74 233 7.0 15.0 0.00 0.00 0.00 43 1023.3
20260413004606 73 207 7.0 9.0 0.00 0.00 0.00 42 1023.4
20260413004104 72 214 4.0 8.0 0.00 0.00 0.00 41 1023.4
20260413003601 71 246 1.0 1.0 0.00 0.00 0.00 44 1023.2
20260413003100 70 235 1.0 2.0 0.00 0.00 0.00 43 1023.1
20260413002557 69 242 0.0 0.0 0.00 0.00 0.00 44 1023.3
20260413002054 71 242 0.0 0.0 0.00 0.00 0.00 44 1023.1
20260413001552 71 242 0.0 0.0 0.00 0.00 0.00 43 1023.2
20260413001050 72 242 0.0 0.0 0.00 0.00 0.00 42 1023.3
20260413000547 73 241 0.0 0.0 0.00 0.00 0.00 42 1023.1
20260413000044 73 242 1.0 1.0 0.00 0.00 0.00 40 1023.2
20260412235542 74 249 0.0 0.0 0.00 0.00 0.00 39 1023.3
20260412235039 75 275 0.0 0.0 0.00 0.00 0.00 39 1023.2
20260412234537 75 267 1.0 2.0 0.00 0.00 0.00 38 1023.2
20260412234033 76 249 2.0 2.0 0.00 0.00 0.00 37 1023.4
20260412233531 76 291 3.0 6.0 0.00 0.00 0.00 37 1023.3
20260412233027 76 247 2.0 3.0 0.00 0.00 0.00 36 1023.3
20260412232523 77 254 2.0 6.0 0.00 0.00 0.00 37 1023.2
20260412232022 76 260 4.0 9.0 0.00 0.00 0.00 37 1023.2
20260412231518 77 271 2.0 7.0 0.00 0.00 0.00 37 1023.3
20260412231015 77 208 4.0 8.0 0.00 0.00 0.00 36 1023.2
20260412230513 77 279 4.0 8.0 0.00 0.00 0.00 36 1023.4
20260412230010 78 274 4.0 7.0 0.00 0.00 0.00 36 1023.1
20260412225507 78 228 4.0 7.0 0.00 0.00 0.00 37 1023.2
20260412225005 79 206 4.0 7.0 0.00 0.00 0.00 37 1023.2
20260412224502 79 264 5.0 8.0 0.00 0.00 0.00 34 1023.3
20260412224000 78 198 4.0 8.0 0.00 0.00 0.00 35 1023.4
20260412223458 79 225 2.0 7.0 0.00 0.00 0.00 34 1023.5
20260412222955 79 292 6.0 8.0 0.00 0.00 0.00 34 1023.5
20260412222452 79 250 7.0 11.0 0.00 0.00 0.00 34 1023.5
20260412221949 78 273 7.0 10.0 0.00 0.00 0.00 34 1023.3
20260412221448 79 324 5.0 9.0 0.00 0.00 0.00 36 1023.7
20260412220944 79 203 5.0 9.0 0.00 0.00 0.00 35 1023.5
20260412220441 78 279 9.0 14.0 0.00 0.00 0.00 33 1023.5
20260412215938 78 325 11.0 16.0 0.00 0.00 0.00 35 1023.4
20260412215436 79 280 7.0 8.0 0.00 0.00 0.00 35 1023.6
20260412214933 80 298 2.0 9.0 0.00 0.00 0.00 34 1023.7
20260412214431 78 297 4.0 10.0 0.00 0.00 0.00 34 1023.7
20260412213929 78 300 6.0 14.0 0.00 0.00 0.00 35 1023.8
20260412213425 78 286 9.0 15.0 0.00 0.00 0.00 34 1023.6
20260412212923 78 278 10.0 14.0 0.00 0.00 0.00 34 1023.6
20260412212421 79 340 5.0 10.0 0.00 0.00 0.00 35 1023.6
20260412211919 79 200 7.0 11.0 0.00 0.00 0.00 34 1023.8
20260412211416 79 324 3.0 4.0 0.00 0.00 0.00 34 1023.7
20260412210915 79 225 6.0 10.0 0.00 0.00 0.00 35 1023.8
20260412210411 79 251 6.0 9.0 0.00 0.00 0.00 33 1023.8
20260412205909 79 290 16.0 19.0 0.00 0.00 0.00 34 1023.8
20260412205406 79 287 6.0 7.0 0.00 0.00 0.00 38 1023.9
20260412204903 80 283 7.0 11.0 0.00 0.00 0.00 37 1024.1
20260412204401 79 295 5.0 7.0 0.00 0.00 0.00 33 1024.0
20260412203857 79 253 4.0 10.0 0.00 0.00 0.00 36 1024.1
20260412203355 79 258 12.0 15.0 0.00 0.00 0.00 33 1024.1